Wind_Speed
31 30 30 30 30 30 31 31 32 32 33 33 34 34 35 35 35 35 36 37 37 37 38 38 38 38 38 38 39 39 39 39 39 39 40 40 41 42 42 43 43 43 43
33 32 32 33 33 33 32 33 33 33 33 34 35 35 35 35 35 36 37 38 38 38 38 38 38 38 39 39 39 39 39 39 39 40 40 40 41 42 42 43 44 44 45
34 34 34 34 34 33 33 33 34 34 35 35 35 36 36 36 36 37 38 38 38 38 38 38 38 39 39 39 39 39 39 40 40 40 40 41 41 41 42 43 44 45 45
35 35 34 34 34 34 34 35 35 35 35 35 36 36 36 37 37 38 38 38 38 38 38 38 38 38 39 39 40 40 40 40 40 40 41 42 42 43 43 43 44 44 44
35 35 35 34 34 34 34 35 35 35 35 35 36 37 37 37 37 37 37 37 37 38 38 38 38 38 39 39 39 40 40 40 41 41 42 43 44 44 44 44 44 44 45
35 35 35 35 34 34 34 34 35 35 35 35 36 36 37 37 36 36 37 37 37 38 38 38 38 38 38 39 39 40 41 41 42 43 43 44 45 45 45 45 44 44 44
35 35 35 34 34 34 34 34 35 34 34 35 35 36 36 36 36 37 37 37 37 37 37 37 37 38 38 39 40 41 41 42 43 44 45 45 46 46 46 46 45 44 44
35 35 35 34 34 34 34 34 34 34 34 35 35 35 35 35 36 36 36 36 36 36 37 37 38 38 39 40 40 41 42 43 44 45 46 46 47 47 47 48 48 47 46
34 34 34 34 34 33 33 33 33 34 34 34 34 34 35 35 35 35 35 36 36 36 37 37 38 39 39 40 41 42 43 44 45 46 47 47 48 48 49 49 50 49 48
32 32 32 32 33 33 33 33 33 33 33 33 33 34 34 34 34 35 35 36 36 36 37 37 38 39 40 41 42 43 44 45 46 47 48 48 49 50 50 51 51 52 52
29 29 30 30 31 31 31 31 31 31 32 32 32 32 33 33 33 34 34 35 35 36 37 37 38 39 40 41 42 43 45 45 46 47 48 49 50 51 52 52 53 54 55
27 27 28 29 30 30 30 29 29 30 30 31 31 31 32 32 33 33 34 35 35 36 37 37 38 39 40 42 43 44 45 46 47 48 49 50 51 52 53 54 55 57 59
26 26 27 28 28 28 28 28 28 29 30 30 31 31 31 32 32 33 33 34 35 36 37 37 38 39 41 42 43 45 46 47 48 49 51 52 53 54 55 57 58 60 62
26 26 26 26 26 27 27 28 28 29 29 30 30 30 31 31 32 32 33 33 34 35 36 37 38 40 41 43 44 46 47 48 49 51 52 53 55 56 58 59 61 63 65
25 26 25 25 26 27 27 27 28 28 28 29 29 30 30 31 31 31 32 33 34 35 36 38 39 40 42 44 45 46 48 49 50 52 53 55 57 58 60 63 64 66 67
25 25 25 26 26 26 27 27 27 28 28 29 29 30 30 30 31 31 32 33 35 36 37 39 40 41 43 45 46 48 49 50 51 53 55 57 59 61 63 65 67 68 70
26 26 26 26 26 26 27 27 28 28 28 29 29 29 30 30 31 32 33 34 36 37 38 39 40 42 44 45 47 48 49 51 53 54 56 59 61 63 65 67 68 69 71
26 26 26 26 26 26 27 27 28 28 28 29 29 29 29 30 31 33 34 35 36 37 39 40 41 42 44 46 47 49 51 52 54 56 58 60 63 65 67 68 69 70 70
26 26 26 26 26 27 27 28 28 28 28 28 29 29 30 31 32 33 34 36 37 38 39 40 42 43 45 47 49 50 52 53 55 57 60 62 64 67 69 70 70 69 69
27 27 27 27 27 28 28 28 28 28 28 29 29 30 31 32 33 34 35 36 37 38 39 40 42 44 46 48 50 51 52 54 57 59 62 64 66 68 69 70 70 70 70
27 27 28 28 28 28 28 28 28 28 29 29 30 30 31 32 33 34 35 36 37 38 40 41 43 45 47 49 51 53 55 57 59 61 63 66 68 69 70 71 71 70 69
27 27 28 28 28 28 28 28 28 28 29 29 30 31 31 32 33 35 35 36 38 39 41 42 44 47 49 50 52 55 57 59 61 63 66 67 68 70 71 71 70 68 67
26 27 27 27 27 28 28 28 28 28 29 29 30 31 32 33 34 35 36 37 39 40 42 44 46 48 50 52 54 57 59 61 63 65 67 68 69 70 69 68 66 65 64
26 26 27 27 27 27 28 28 28 28 29 30 31 31 33 34 35 36 37 38 40 42 43 46 48 50 52 54 56 58 61 63 65 66 67 68 68 67 66 64 63 62 61
26 26 27 27 27 28 28 28 29 29 30 31 32 32 33 34 35 37 38 40 41 43 45 47 50 51 53 56 58 60 62 64 66 66 67 67 66 65 63 61 60 59 57
26 26 27 27 27 27 28 28 29 30 31 31 32 33 34 35 36 38 40 41 43 44 47 49 52 53 56 58 60 62 63 65 66 67 67 66 64 62 59 57 56 54 51
Wind_Direction
258 260 263 265 267 269 272 274 277 278 280 283 284 286 287 288 289 289 290 290 290 290 290 291 292 292 293 293 293 294 294 295 295 296 297 298 298 298 297 297 297 297 296
258 261 263 266 268 270 272 273 275 278 279 281 283 284 285 286 287 287 288 289 289 289 290 290 291 291 292 293 294 294 294 294 296 296 297 298 298 298 298 299 299 298 297
258 260 262 265 267 269 271 273 275 277 279 280 281 282 283 285 285 286 287 288 288 289 289 289 289 290 291 292 293 294 294 295 296 296 297 298 298 298 299 299 299 299 298
258 260 262 264 266 269 271 273 275 276 278 279 280 281 283 284 284 285 286 286 287 288 288 289 289 289 291 291 293 294 295 296 296 296 297 298 299 299 300 300 300 299 299
258 260 263 265 266 268 270 272 274 276 277 278 279 280 281 282 284 285 285 286 286 287 288 288 288 289 291 291 293 294 296 296 297 297 298 299 300 300 300 301 300 300 300
259 261 263 264 266 267 269 271 273 274 276 277 278 280 281 282 283 284 284 285 286 286 287 288 288 290 291 292 293 295 296 296 297 298 299 300 301 301 301 301 300 300 300
260 261 262 264 266 267 269 270 272 273 275 276 277 279 280 281 282 283 284 284 285 285 286 287 288 290 291 292 293 294 296 297 298 299 300 301 301 301 301 301 300 300 299
259 261 263 264 266 267 269 270 272 273 274 276 277 278 279 280 281 282 283 284 284 285 286 287 289 290 292 292 293 294 296 297 298 299 301 302 302 302 301 301 301 300 299
259 261 263 265 267 268 269 270 271 273 274 275 276 277 279 280 280 282 283 283 284 285 286 288 289 290 291 292 293 295 296 297 299 300 301 301 302 302 302 302 301 300 299
259 261 263 264 266 267 268 270 271 273 274 275 276 277 278 279 280 281 282 283 283 285 286 288 289 290 291 292 294 296 297 298 299 300 301 301 302 302 302 302 301 301 300
258 260 262 263 265 267 268 270 271 272 273 274 276 277 278 279 280 281 282 283 284 285 286 288 289 290 291 293 295 296 298 299 300 300 301 302 302 302 302 302 302 302 301
259 260 262 263 265 267 269 270 270 272 273 274 275 277 278 280 281 281 282 283 285 286 287 288 289 290 292 294 295 297 298 299 300 300 301 301 302 302 302 302 302 302 302
259 259 261 263 265 266 267 269 270 272 273 274 276 277 279 281 282 282 283 284 285 286 287 288 289 291 293 295 296 297 298 299 300 300 301 301 302 302 303 303 303 303 302
257 258 260 262 264 265 266 268 269 272 274 275 277 278 280 281 282 283 284 285 286 287 288 289 291 292 294 295 297 298 299 299 300 301 302 302 302 303 303 303 303 303 302
257 258 259 261 262 264 266 268 270 272 274 276 277 279 280 282 283 284 285 287 288 288 289 291 292 294 295 297 298 298 299 300 301 302 302 303 303 304 304 304 304 303 303
256 257 259 260 262 264 267 269 271 273 275 276 277 279 280 282 284 285 287 288 289 290 291 293 294 295 296 297 298 299 300 301 302 303 303 304 304 304 305 305 305 304 304
254 256 258 260 262 264 267 269 271 273 275 276 278 280 282 284 285 286 287 288 290 291 292 294 295 296 298 299 300 301 302 303 303 304 305 305 305 305 306 305 305 305 304
254 255 258 260 263 265 267 270 272 273 274 277 279 281 283 284 285 287 289 290 291 293 294 295 297 298 300 300 301 302 303 303 304 305 306 306 306 307 306 306 305 305 305
254 256 258 261 264 266 268 270 272 273 276 278 280 282 283 285 286 288 290 291 293 294 295 297 298 300 301 302 303 304 304 305 305 306 307 307 307 307 307 306 306 306 305
253 256 258 261 264 267 268 270 271 273 276 278 280 282 284 286 288 290 292 293 294 296 297 299 300 301 302 303 304 304 305 305 307 307 308 308 308 308 307 307 307 306 306
253 255 258 261 265 267 268 269 271 274 276 279 281 283 285 287 289 291 293 295 296 298 299 301 302 303 304 304 305 305 306 307 308 309 309 309 309 309 308 307 307 307 306
253 256 259 262 265 267 268 269 272 274 277 279 282 284 286 289 291 293 295 296 298 299 301 303 304 305 306 306 306 307 308 309 310 310 310 310 309 309 309 308 307 307 307
253 255 258 262 264 266 267 270 272 275 278 281 283 285 288 290 292 294 296 298 300 301 303 304 306 306 307 307 308 309 310 310 311 311 311 311 310 310 310 309 308 308 308
253 256 259 262 264 266 268 270 273 276 279 282 285 287 290 292 294 296 298 300 302 303 305 306 307 308 308 309 310 310 311 311 312 312 312 312 311 311 311 310 310 310 310
254 257 259 261 263 266 269 271 274 277 281 284 286 289 291 293 296 298 300 302 303 305 306 308 309 310 310 310 311 312 312 313 313 313 313 312 312 312 311 311 311 311 311
255 257 259 261 264 268 271 273 276 279 282 285 288 290 293 295 297 299 301 303 305 307 308 310 311 311 312 312 313 313 314 314 314 314 313 313 313 313 312 312 312 312 312
Height
5813 5814 5816 5817 5818 5819 5819 5818 5818 5817 5816 5815 5814 5812 5811 5809 5807 5805 5802 5800 5798 5795 5793 5790 5787 5785 5782 5779 5776 5773 5769 5766 5763 5759 5756 5752 5748 5744 5740 5736 5732 5728 5724
5806 5808 5808 5809 5810 5811 5811 5811 5810 5809 5808 5807 5806 5804 5803 5801 5799 5797 5794 5792 5790 5787 5785 5782 5780 5777 5774 5771 5768 5764 5761 5758 5754 5751 5747 5744 5740 5735 5731 5726 5722 5718 5714
5799 5800 5801 5802 5802 5803 5803 5803 5802 5801 5800 5799 5798 5796 5795 5793 5791 5789 5786 5784 5782 5779 5777 5774 5771 5768 5766 5762 5759 5756 5753 5749 5746 5742 5739 5735 5732 5728 5723 5718 5713 5708 5704
5790 5792 5793 5794 5794 5794 5794 5794 5794 5793 5792 5791 5789 5788 5787 5785 5783 5780 5778 5776 5773 5771 5768 5766 5763 5760 5757 5754 5751 5748 5744 5741 5737 5734 5730 5726 5722 5718 5714 5709 5704 5699 5694
5782 5783 5784 5785 5786 5786 5786 5785 5785 5784 5783 5782 5781 5779 5778 5776 5774 5772 5770 5767 5765 5763 5760 5757 5755 5752 5749 5746 5743 5739 5736 5732 5729 5725 5721 5717 5713 5708 5704 5700 5695 5690 5684
5773 5774 5775 5776 5777 5777 5777 5777 5776 5775 5774 5773 5772 5771 5769 5767 5765 5763 5761 5759 5757 5754 5752 5749 5746 5744 5741 5738 5734 5731 5727 5724 5720 5716 5712 5708 5703 5699 5694 5690 5686 5681 5675
5764 5765 5766 5767 5767 5768 5768 5768 5767 5767 5766 5765 5764 5762 5760 5759 5757 5755 5753 5751 5748 5746 5743 5741 5738 5735 5732 5729 5726 5722 5719 5715 5711 5706 5702 5698 5693 5688 5684 5679 5675 5671 5666
5755 5756 5757 5758 5758 5758 5759 5759 5758 5758 5757 5756 5755 5753 5752 5750 5748 5746 5744 5742 5740 5737 5735 5733 5730 5727 5724 5721 5717 5713 5709 5705 5701 5697 5692 5688 5683 5678 5673 5668 5664 5660 5656
5746 5747 5748 5748 5749 5749 5750 5750 5749 5749 5748 5747 5746 5744 5743 5741 5739 5737 5736 5733 5731 5729 5727 5724 5722 5719 5715 5712 5708 5704 5700 5696 5692 5687 5682 5677 5672 5667 5662 5657 5652 5648 5644
5737 5738 5739 5740 5740 5740 5741 5741 5740 5740 5739 5738 5737 5736 5734 5733 5731 5729 5727 5725 5723 5721 5718 5716 5713 5710 5706 5703 5699 5695 5691 5687 5682 5677 5672 5667 5662 5657 5651 5646 5640 5635 5630
5729 5730 5730 5731 5731 5732 5732 5732 5732 5731 5730 5730 5729 5727 5726 5724 5723 5721 5719 5717 5714 5712 5709 5707 5704 5701 5697 5694 5690 5686 5681 5677 5672 5667 5662 5657 5651 5645 5640 5634 5628 5622 5616
5720 5721 5722 5723 5723 5723 5723 5723 5723 5723 5722 5721 5720 5719 5718 5716 5715 5713 5711 5708 5706 5703 5701 5698 5695 5692 5688 5684 5680 5676 5671 5667 5662 5656 5651 5645 5640 5634 5628 5621 5615 5609 5602
5712 5713 5714 5714 5715 5715 5715 5715 5715 5715 5714 5713 5712 5711 5710 5708 5706 5704 5702 5700 5697 5695 5692 5689 5686 5683 5679 5675 5670 5666 5661 5656 5651 5646 5640 5634 5628 5622 5615 5608 5601 5594 5587
5705 5706 5706 5707 5707 5707 5707 5707 5707 5707 5706 5705 5704 5703 5701 5700 5698 5696 5694 5691 5689 5686 5683 5680 5677 5673 5669 5665 5660 5656 5651 5646 5640 5634 5628 5622 5615 5608 5601 5594 5587 5579 5571
5697 5698 5698 5699 5699 5700 5700 5699 5699 5699 5698 5697 5696 5694 5693 5691 5690 5687 5685 5683 5680 5677 5674 5671 5667 5663 5659 5655 5650 5645 5640 5634 5629 5622 5616 5609 5601 5594 5587 5579 5571 5562 5554
5689 5690 5691 5691 5692 5692 5692 5692 5691 5691 5690 5689 5688 5686 5685 5683 5681 5679 5677 5674 5671 5668 5665 5661 5658 5654 5649 5644 5639 5634 5629 5623 5617 5610 5603 5596 5588 5580 5572 5563 5554 5545 5535
5681 5682 5683 5683 5684 5684 5684 5684 5683 5683 5682 5681 5680 5678 5677 5675 5673 5670 5668 5665 5662 5659 5656 5652 5648 5644 5639 5634 5629 5623 5617 5611 5604 5597 5590 5582 5573 5565 5556 5547 5538 5528 5517
5672 5674 5675 5675 5676 5676 5676 5676 5675 5675 5674 5673 5671 5670 5668 5666 5664 5662 5659 5656 5653 5650 5646 5642 5638 5633 5628 5623 5617 5611 5605 5599 5592 5584 5576 5568 5559 5549 5540 5532 5523 5512 5502
5664 5665 5667 5667 5668 5668 5668 5668 5667 5666 5665 5664 5663 5662 5660 5658 5655 5653 5650 5647 5644 5640 5636 5632 5627 5623 5617 5612 5606 5599 5593 5586 5579 5571 5562 5553 5544 5534 5524 5515 5506 5497 5486
5656 5657 5658 5659 5660 5660 5660 5659 5659 5658 5657 5656 5655 5653 5651 5649 5647 5644 5641 5638 5634 5630 5626 5622 5617 5612 5606 5600 5594 5587 5581 5574 5567 5558 5548 5538 5528 5518 5507 5496 5487 5479 5469
5648 5649 5650 5651 5651 5651 5651 5651 5651 5650 5649 5648 5646 5645 5643 5640 5638 5635 5632 5628 5625 5621 5617 5612 5607 5601 5595 5588 5582 5574 5567 5560 5552 5543 5533 5523 5512 5501 5490 5479 5469 5460 5450
5640 5641 5642 5643 5643 5643 5643 5643 5642 5642 5641 5639 5638 5636 5634 5632 5629 5626 5623 5619 5615 5611 5606 5601 5595 5589 5583 5576 5569 5562 5554 5545 5537 5528 5518 5507 5496 5485 5474 5463 5452 5442 5433
5632 5633 5634 5634 5635 5635 5635 5635 5634 5633 5632 5631 5629 5627 5625 5623 5620 5617 5613 5609 5605 5601 5596 5591 5585 5578 5571 5564 5556 5548 5540 5531 5522 5512 5502 5491 5480 5469 5458 5447 5436 5426 5417
5624 5625 5626 5626 5627 5627 5627 5627 5626 5625 5624 5622 5621 5618 5616 5613 5610 5607 5604 5600 5595 5591 5585 5580 5574 5567 5559 5551 5543 5535 5526 5516 5506 5496 5486 5475 5464 5453 5442 5432 5421 5412 5402
5616 5617 5618 5618 5619 5619 5619 5618 5618 5617 5615 5614 5612 5610 5607 5604 5601 5598 5594 5590 5585 5580 5574 5568 5562 5555 5547 5539 5530 5521 5512 5502 5492 5481 5471 5460 5449 5438 5428 5417 5408 5398 5389
5608 5609 5610 5610 5611 5611 5610 5610 5609 5608 5607 5605 5603 5601 5598 5595 5592 5588 5584 5579 5574 5569 5562 5556 5549 5541 5533 5524 5516 5506 5496 5485 5475 5465 5454 5444 5433 5423 5413 5404 5395 5386 5377